Location: G�migny
(47.9646°N, 1.6950°E)
Time: 14:40:29
(UTC+00:00)

Cosmos 44 - Pass Details

Date: 23 October 2019
Orbit: 592 x 769 km, 65.1° (Epoch: 12 November)

Event Time Altitude Azimuth Distance (km) Brightness Sun altitude
Rises 18:35:41 0° 211° (SSW) 3,102 7.0 -18.2°
Reaches altitude 10° 18:38:05 10° 210° (SSW) 2,158 6.2 -18.6°
Maximum altitude 18:42:59 77° 125° (SE) 695 3.1 -19.4°
Enters shadow 18:45:14 31° 44° (NE) 1,166 4.1 -19.8°
